FLOCK 2E-3 (41486 NORAD) Tracking and Keplerian Element Data

This shows tracking and keplerian element data for the satellite.

Feedback or suggestion? Click here.




ElementValue
Catalog41486
NameFLOCK 2E-3
Epoch Orbit10780
Epoch Day95.03837008
Epoch Year2018
RAAN309.2783
Inclination51.6039
Eccentricity0.0005505
Argument of Perigee253.9664
Mean Anonmoly106.6974
Mean Motion16.45478087
Decay Rate0.1644579
L11 41486U 98067JG 18095.03837008 .16445790 12525-4 43382-3 0 9993
L22 41486 51.6039 309.2783 0005505 253.9664 106.6974 16.45478087107800



Live tracking and technical data element details for FLOCK 2E-3 (NORAD 41486). FLOCK 2E-3 can be tracked NOW for your location showing map with azimuth and elevation plus other details from your city location.







IsCatalogInMostPopularTable: catalog: 41486, numindb: 582
Update: records affected: 1



GetName: 41486 FLOCK 2E-3

Hit Count: updated at: Thu, 15 May 2025 09:18:46 GMT